This is the latest recevied weather packets stored in our database for station/object EA1IOK-1. If no packets are shown the sender has not sent any weather packets the latest 10 day(s).
| Time | Temp. | Humidity | Pressure | Rain* | Wind** | Luminosity | Snow |
|---|---|---|---|---|---|---|---|
| 1777731763 | 18.89° C | 100% | 1012.8 hPa | - | - | - | - |
| 1777730862 | 19.44° C | 100% | 1013.1 hPa | - | - | - | - |
| 1777729962 | 20.56° C | 100% | 1013.4 hPa | - | - | - | - |
| 1777729062 | 20.56° C | 100% | 1013.6 hPa | - | - | - | - |
| 1777728161 | 18.33° C | 100% | 1013.9 hPa | - | - | - | - |
| 1777727260 | 17.78° C | 100% | 1013.9 hPa | - | - | - | - |
| 1777726359 | 17.78° C | 100% | 1014 hPa | - | - | - | - |
| 1777725459 | 16.11° C | 100% | 1014.1 hPa | - | - | - | - |
| 1777724559 | 16.11° C | 100% | 1014.1 hPa | - | - | - | - |
| 1777723658 | 16.67° C | 100% | 1013.9 hPa | - | - | - | - |
| 1777722757 | 17.78° C | 100% | 1014.1 hPa | - | - | - | - |
| 1777721856 | 17.22° C | 100% | 1014.1 hPa | - | - | - | - |
| 1777720955 | 17.78° C | 100% | 1013.9 hPa | - | - | - | - |
| 1777720052 | 17.78° C | 100% | 1014.1 hPa | - | - | - | - |
| 1777719151 | 19.44° C | 100% | 1014.2 hPa | - | - | - | - |
| 1777718251 | 18.33° C | 100% | 1014.3 hPa | - | - | - | - |
| 1777717350 | 18.33° C | 100% | 1014.3 hPa | - | - | - | - |
| 1777716450 | 18.33° C | 100% | 1014.3 hPa | - | - | - | - |
| 1777715547 | 18.33° C | 100% | 1014.3 hPa | - | - | - | - |
| 1777714646 | 17.78° C | 100% | 1014.5 hPa | - | - | - | - |
| 1777713746 | 19.44° C | 100% | 1014.6 hPa | - | - | - | - |
| 1777712845 | 20° C | 100% | 1014.7 hPa | - | - | - | - |
| 1777711943 | 19.44° C | 100% | 1014.8 hPa | - | - | - | - |
| 1777711042 | 18.33° C | 100% | 1014.8 hPa | - | - | - | - |
| 1777710142 | 19.44° C | 100% | 1014.8 hPa | - | - | - | - |
* Rain since midnight (hover to see other rain measurements)
** Current wind speed in m/s (hover to see current wind gust speed)